CAPE
0 0 0 14 22 0 0 0 5 18 0 0 7 18 16 117 146 119 81 0 24 6 1 13 1 2 0 0 0 0 0 0 0 0 0 0 0 0 0 0 0 0 0
0 0 1 10 0 0 0 0 23 10 0 0 2 3 6 0 0 0 7 2 3 0 0 0 14 1 0 0 0 0 0 0 0 0 0 10 2 0 0 0 0 0 0
0 0 3 0 0 0 0 0 25 5 0 16 19 10 4 4 1 0 0 0 0 0 0 0 14 2 0 0 0 0 0 0 0 0 5 6 0 0 0 0 0 0 0
0 0 3 8 0 0 0 1 16 1 1 0 0 0 10 18 0 0 0 3 3 7 0 1 5 0 0 0 0 0 0 0 1 0 0 1 6 0 0 0 0 0 0
0 0 1 12 0 2 4 20 20 7 1 0 13 10 1 1 0 0 8 23 18 11 27 12 1 0 0 0 0 0 0 5 22 8 0 0 0 0 0 0 0 0 0
0 0 13 14 5 8 7 22 28 11 0 12 0 0 12 4 0 0 7 7 5 20 12 12 6 0 0 0 0 0 0 14 21 24 15 0 0 0 0 0 0 0 0
6 18 0 13 19 0 78 6 1 11 0 0 0 0 3 31 0 0 0 4 5 6 9 3 0 0 0 0 0 0 2 9 5 0 2 8 6 0 0 0 0 0 0
34 41 13 5 0 1 50 3 2 0 0 0 0 0 1 41 15 0 0 0 0 0 1 0 0 0 0 0 0 32 20 8 0 0 0 1 0 0 0 0 0 0 0
15 0 0 0 0 6 10 0 0 0 0 0 0 0 1 36 28 4 0 0 0 0 0 3 30 7 13 22 32 16 0 3 0 0 0 0 0 0 0 0 0 0 0
0 0 0 0 2 40 29 20 15 0 0 0 0 3 0 3 46 62 28 5 1 7 7 45 90 58 19 0 22 0 0 0 0 0 0 0 0 0 0 0 0 0 0
0 1 2 108 174 63 20 37 35 17 4 0 8 4 1 1 0 66 51 31 33 49 75 66 52 34 15 7 4 0 1 1 1 0 0 0 0 0 0 0 0 0 0
0 6 2 7 65 76 71 128 93 26 10 1 0 4 1 0 0 0 1 30 74 62 2 1 0 0 0 0 1 1 0 6 6 0 0 0 0 0 0 0 0 0 0
1 2 2 2 3 1 1 1 5 0 0 0 0 1 0 0 1 1 1 0 23 14 0 0 0 0 0 0 0 0 1 2 0 0 0 0 0 0 0 0 0 0 0
1 2 1 1 1 1 1 0 0 0 0 0 0 0 1 0 0 1 1 0 1 0 1 0 0 0 1 1 0 0 0 0 0 0 0 0 0 0 0 0 0 0 0
1 1 1 0 1 0 0 0 0 0 0 0 0 1 0 0 0 0 0 0 0 0 0 0 0 0 0 1 0 0 0 0 0 0 0 0 0 0 0 0 0 0 0
1 0 0 0 0 0 0 0 0 0 0 0 0 0 0 0 0 0 0 0 0 0 0 0 0 0 0 0 0 0 0 0 0 0 0 0 0 0 0 0 0 0 0
0 0 0 0 0 0 0 0 0 0 0 0 0 0 0 0 0 0 0 0 0 0 0 0 0 0 0 0 0 0 0 0 0 0 0 0 0 0 0 0 0 0 0
0 0 0 0 0 0 0 0 0 0 0 0 0 0 0 0 0 0 0 0 0 0 0 0 0 0 0 0 0 0 0 0 0 0 0 0 0 0 0 0 0 0 0
0 0 0 0 0 0 0 0 0 0 0 0 0 0 0 0 0 0 0 0 0 0 0 0 0 0 0 0 0 0 0 0 0 0 0 0 0 0 0 0 0 0 0
0 0 0 0 0 0 0 0 0 0 0 0 0 0 0 0 0 0 0 0 0 0 0 0 0 0 0 0 0 0 0 0 0 0 0 0 0 0 0 0 0 0 0
0 0 0 0 0 0 0 0 0 0 0 0 0 0 0 0 0 0 0 0 0 0 0 0 0 0 0 0 0 0 0 0 0 0 0 0 0 0 0 0 0 0 0
0 0 0 0 0 0 0 0 0 0 0 0 0 0 0 0 0 0 0 0 0 0 0 0 0 0 0 0 0 0 0 0 0 0 0 0 0 0 0 0 0 0 0
0 0 0 0 0 0 0 0 0 0 0 0 0 0 0 0 0 0 0 0 0 0 0 0 0 0 0 0 0 0 0 0 0 0 0 0 0 0 0 0 0 2 0
0 0 0 0 0 0 0 0 0 0 0 0 0 0 0 0 0 0 0 0 0 0 0 0 0 0 0 0 0 0 0 0 0 0 0 0 0 0 0 0 0 0 0
0 0 0 0 0 0 0 0 0 0 0 0 0 0 0 0 0 0 0 0 0 0 0 0 0 0 0 0 0 0 0 0 0 0 0 0 0 0 0 0 0 0 0
0 0 0 0 0 0 0 0 0 0 0 0 0 0 0 0 0 0 0 0 0 0 0 0 0 0 0 0 0 0 0 0 2 0 0 0 0 0 0 0 0 0 0
CIN
-0 -0 -0 -65 -99 -0 -0 -0 -0 -0 -0 -1 -19 -3 -1 -29 -26 -42 -45 -21 -43 -42 -64 -58 -25 -27 -0 -0 -0 -0 -0 -0 -0 -0 -0 -0 -0 -0 -0 -0 -0 -0 -0
-0 -0 -28 -64 -0 -0 -0 -0 -0 -0 -0 -0 -4 -0 -46 -0 -0 -0 -35 -69 -70 -0 -0 -6 -37 -5 -0 -0 -0 -0 -0 -0 -0 -0 -0 -70 -23 -0 -0 -0 -0 -0 -0
-0 -0 -17 -3 -0 -0 -0 -0 -0 -0 -0 -84 -8 -0 -54 -26 -21 -0 -0 -0 -0 -0 -0 -1 -14 -24 -0 -0 -0 -0 -0 -0 -0 -0 -82 -50 -0 -0 -0 -0 -0 -0 -0
-0 -0 -8 -44 -0 -0 -0 -27 -0 -1 -0 -0 -0 -0 -36 -41 -0 -0 -0 -23 -21 -13 -0 -36 -24 -1 -0 -0 -0 -0 -0 -0 -36 -0 -0 -43 -91 -0 -0 -0 -7 -0 -0
-0 -0 -7 -10 -0 -39 -78 -2 -0 -0 -0 -0 -63 -26 -1 -42 -0 -0 -28 -16 -8 -13 -28 -35 -18 -0 -0 -0 -0 -0 -0 -41 -104 -100 -7 -5 -0 -0 -0 -0 -0 -0 -0
-0 -1 -8 -48 -61 -46 -24 -5 -1 -0 -0 -90 -0 -0 -42 -13 -0 -0 -20 -33 -34 -22 -23 -37 -43 -4 -0 -0 -0 -0 -0 -118 -94 -81 -74 -0 -0 -0 -0 -0 -0 -0 -0
-16 -68 -0 -37 -44 -0 -1 -22 -0 -0 -0 -0 -0 -0 -1 -22 -0 -0 -0 -18 -27 -38 -34 -39 -0 -0 -0 -0 -0 -0 -13 -142 -127 -0 -42 -92 -94 -0 -0 -0 -0 -0 -0
-42 -8 -27 -23 -0 -15 -2 -26 -1 -0 -0 -0 -0 -0 -0 -21 -58 -0 -0 -0 -0 -0 -5 -0 -0 -0 -0 -0 -0 -61 -96 -132 -0 -0 -0 -113 -0 -0 -0 -0 -0 -0 -0
-16 -0 -0 -0 -0 -0 -24 -0 -0 -0 -0 -0 -0 -0 -0 -28 -61 -108 -0 -1 -0 -0 -0 -17 -63 -19 -17 -58 -66 -83 -0 -60 -0 -0 -0 -0 -0 -0 -0 -0 -0 -0 -0
-0 -4 -0 -0 -3 -15 -15 -45 -60 -0 -0 -0 -0 -0 -0 -39 -24 -16 -40 -10 -5 -11 -12 -41 -16 -35 -50 -0 -72 -0 -0 -0 -0 -0 -0 -0 -0 -0 -0 -0 -0 -0 -0
-0 -0 -0 -23 -0 -3 -37 -38 -29 -47 -0 -5 -85 -1 -0 -0 -0 -5 -7 -53 -51 -32 -12 -16 -31 -25 -50 -31 -24 -0 -0 -0 -111 -0 -0 -0 -0 -0 -0 -0 -0 -0 -0
-0 -4 -0 -79 -24 -4 -4 -4 -18 -57 -65 -0 -0 -9 -0 -0 -0 -0 -0 -39 -39 -16 -34 -1 -3 -0 -0 -0 -0 -5 -0 -179 -220 -1 -0 -0 -0 -0 -0 -0 -0 -0 -0
-0 -0 -0 -0 -0 -0 -0 -0 -39 -0 -0 -0 -0 -0 -0 -0 -0 -0 -0 -0 -31 -66 -0 -0 -0 -0 -2 -0 -0 -0 -35 -194 -0 -0 -0 -0 -0 -0 -0 -0 -0 -0 -0
-0 -0 -0 -0 -0 -0 -0 -0 -0 -0 -0 -0 -0 -0 -0 -0 -1 -0 -0 -0 -0 -0 -0 -0 -0 -0 -0 -54 -35 -0 -0 -0 -0 -0 -0 -0 -0 -0 -0 -0 -0 -0 -0
-0 -0 -0 -0 -0 -0 -0 -0 -0 -0 -0 -0 -0 -0 -0 -0 -0 -0 -0 -0 -0 -0 -0 -0 -0 -0 -17 -33 -0 -0 -0 -0 -0 -0 -0 -0 -0 -0 -0 -0 -0 -0 -0
-0 -0 -0 -0 -0 -0 -0 -0 -0 -0 -0 -0 -0 -0 -0 -0 -0 -0 -0 -0 -0 -0 -0 -0 -0 -0 -0 -0 -0 -0 -0 -0 -0 -0 -0 -0 -0 -0 -0 -0 -0 -0 -0
-0 -0 -0 -0 -0 -0 -0 -0 -0 -0 -0 -0 -0 -0 -0 -0 -0 -0 -0 -0 -0 -0 -0 -0 -0 -0 -0 -0 -0 -0 -0 -0 -0 -0 -0 -0 -0 -0 -0 -0 -0 -0 -0
-0 -0 -0 -0 -0 -0 -0 -0 -0 -0 -0 -0 -0 -0 -0 -0 -0 -0 -0 -0 -0 -0 -0 -0 -0 -0 -0 -0 -0 -0 -0 -0 -0 -0 -0 -0 -0 -0 -0 -0 -0 -0 -0
-0 -0 -0 -0 -0 -0 -0 -0 -0 -0 -0 -0 -0 -0 -0 -0 -0 -0 -0 -0 -0 -0 -0 -0 -0 -0 -0 -0 -0 -0 -0 -0 -0 -0 -0 -0 -0 -0 -0 -0 -0 -0 -0
-0 -0 -0 -0 -0 -0 -0 -0 -0 -0 -0 -0 -0 -0 -0 -0 -0 -0 -0 -0 -0 -0 -0 -0 -0 -0 -0 -0 -0 -0 -0 -0 -0 -0 -0 -0 -0 -0 -0 -0 -0 -0 -0
-0 -0 -0 -0 -0 -0 -0 -0 -0 -0 -0 -0 -0 -0 -0 -0 -0 -0 -0 -0 -0 -0 -0 -0 -0 -0 -0 -0 -0 -0 -0 -0 -0 -0 -0 -0 -0 -0 -0 -0 -0 -0 -0
-0 -0 -0 -0 -0 -0 -0 -0 -0 -0 -0 -0 -0 -0 -0 -0 -0 -0 -0 -0 -0 -0 -0 -0 -0 -0 -0 -0 -0 -0 -0 -0 -0 -0 -0 -0 -0 -0 -0 -0 -0 -0 -0
-0 -0 -0 -0 -0 -0 -0 -0 -0 -0 -0 -0 -0 -0 -0 -0 -0 -0 -0 -0 -0 -0 -0 -0 -0 -0 -0 -0 -0 -0 -0 -0 -0 -0 -0 -0 -0 -0 -0 -0 -0 -0 -0
-0 -0 -0 -0 -0 -0 -0 -0 -0 -0 -0 -0 -0 -0 -0 -0 -0 -0 -0 -0 -0 -0 -0 -0 -0 -0 -0 -0 -0 -0 -0 -0 -0 -0 -0 -0 -0 -0 -0 -0 -0 -0 -0
-0 -0 -0 -0 -0 -0 -0 -0 -0 -0 -0 -0 -0 -0 -0 -0 -0 -0 -0 -0 -0 -0 -0 -0 -0 -0 -0 -0 -0 -0 -0 -0 -0 -0 -0 -0 -0 -0 -0 -0 -0 -0 -0
-0 -0 -0 -0 -0 -0 -0 -0 -0 -0 -0 -0 -0 -0 -0 -0 -0 -0 -0 -0 -0 -0 -0 -0 -0 -0 -0 -0 -0 -0 -0 -0 -0 -0 -0 -0 -0 -0 -0 -0 -0 -0 -0
Wind_Speed
9 8 10 13 9 8 7 9 8 9 11 4 5 11 12 12 13 13 16 15 13 12 12 8 7 8 6 6 6 4 5 2 3 4 1 1 5 4 3 3 2 2 4
7 9 7 10 10 9 9 9 11 7 11 5 4 13 10 6 8 9 13 14 14 12 12 13 10 9 7 7 6 6 3 3 3 4 2 2 2 2 5 3 3 5 2
9 10 13 9 9 9 12 10 11 11 13 9 3 12 5 5 5 7 10 13 15 11 15 15 12 11 8 7 6 6 6 4 1 2 3 2 2 1 1 2 3 2 1
10 10 7 10 9 8 8 9 12 12 11 8 4 9 8 10 9 9 10 10 15 14 12 10 10 8 6 7 6 6 5 6 4 1 1 4 3 3 2 1 2 3 2
10 9 8 6 10 7 8 10 14 14 16 10 9 2 16 10 9 8 14 10 14 14 11 12 9 7 6 7 8 7 6 4 5 4 3 2 2 3 3 2 2 2 1
9 8 4 8 7 6 9 12 13 13 18 10 6 10 11 12 11 11 11 9 9 10 10 10 9 7 7 9 7 6 7 5 5 4 3 3 3 2 3 2 1 1 2
6 6 7 7 8 7 10 12 12 10 15 10 7 5 9 14 17 16 11 12 9 8 9 9 9 9 8 8 8 7 6 7 5 5 4 3 3 3 2 3 2 2 2
2 3 2 5 8 8 12 12 11 11 12 13 8 2 12 11 11 14 12 10 10 11 11 9 9 10 10 9 9 8 6 7 6 7 5 4 3 3 3 4 3 1 1
4 2 3 6 5 7 14 14 13 10 15 17 12 6 4 18 14 12 11 10 10 10 12 12 11 11 11 11 10 8 9 8 6 6 6 4 3 3 3 4 3 3 0
1 3 4 8 13 13 10 9 10 10 8 4 15 9 9 9 13 12 14 11 11 12 14 12 12 12 11 11 10 9 8 8 5 5 8 6 4 5 4 5 1 3 3
1 4 5 7 13 15 12 10 10 8 7 6 4 6 8 8 5 11 12 14 14 14 13 13 14 13 13 10 9 8 9 9 8 7 8 7 7 6 3 5 2 3 3
6 9 13 13 13 13 12 11 9 9 7 6 8 8 8 6 6 6 3 12 15 14 15 13 12 11 12 11 10 10 9 11 10 9 8 7 5 11 5 4 4 3 2
19 15 15 14 14 12 12 12 10 10 7 7 7 6 5 6 6 7 5 6 8 14 15 13 12 10 9 9 9 9 8 8 9 9 7 6 8 8 5 4 5 3 2
22 17 18 16 15 15 14 12 11 9 7 6 7 8 5 6 6 8 7 6 5 13 11 10 9 9 8 7 8 9 9 9 7 6 6 5 4 8 7 6 6 3 3
19 15 16 16 15 15 14 10 8 6 6 7 7 6 6 6 7 8 7 6 5 7 7 8 6 7 10 8 10 8 9 9 8 6 6 5 8 11 7 4 5 5 3
20 21 21 16 14 12 9 9 8 7 8 8 7 6 6 6 6 7 7 6 6 6 8 7 7 6 4 14 14 11 8 8 8 8 7 6 10 11 12 11 10 5 4
16 14 12 12 12 12 9 9 9 9 9 8 7 8 7 7 6 7 7 7 6 5 6 5 6 6 4 10 11 12 7 8 8 8 8 5 4 8 6 9 10 7 6
14 13 11 12 11 10 8 8 9 8 9 8 8 7 7 6 6 6 7 6 5 5 5 6 6 6 4 8 12 12 8 7 7 7 7 8 7 6 8 6 6 5 5
9 9 9 9 9 8 6 7 8 9 9 8 8 7 6 6 6 6 5 4 4 5 4 5 6 7 5 9 10 8 7 6 6 6 6 7 7 10 11 7 7 6 5
7 7 7 6 9 11 7 8 9 8 7 7 6 5 5 4 5 4 4 2 4 5 4 5 5 7 6 7 8 7 6 8 6 5 5 9 8 15 12 7 6 6 5
8 6 8 8 8 8 7 10 8 8 6 3 3 4 4 6 6 6 4 4 4 4 4 5 4 7 7 6 9 6 4 5 5 4 4 3 9 12 13 9 6 6 6
7 9 7 8 8 9 8 7 7 6 6 5 4 3 2 2 3 5 4 6 6 6 6 6 5 3 6 12 10 8 6 5 6 7 4 5 12 11 11 8 7 10 7
5 6 6 6 7 8 8 8 7 7 8 8 5 2 2 2 2 2 4 4 5 4 5 5 4 4 5 4 12 11 9 6 3 4 6 11 11 11 7 9 8 9 4
5 5 6 6 5 5 5 4 7 7 5 5 5 4 3 4 4 3 3 3 3 4 4 5 5 4 4 4 5 6 7 8 4 7 6 7 7 8 6 4 5 4 4
5 5 5 4 4 4 4 5 6 5 3 5 6 5 4 4 4 4 3 3 4 5 4 4 5 5 5 6 9 10 8 8 9 7 3 3 3 4 3 3 4 3 4
5 6 6 6 8 10 10 7 4 2 3 4 4 3 2 3 4 4 4 7 6 2 4 6 6 5 7 13 15 15 14 15 16 5 4 5 5 6 5 5 4 4 6
Wind_Direction
236 247 219 166 157 172 206 226 225 190 151 150 232 256 266 152 158 165 165 161 161 153 154 164 174 152 139 144 144 141 143 122 145 96 60 268 188 187 206 216 208 261 205
255 217 233 159 170 183 202 232 221 174 116 78 340 305 201 125 144 145 154 156 167 158 161 175 181 148 142 143 152 132 123 112 128 140 135 174 353 250 206 193 208 224 210
202 237 220 183 180 179 194 221 207 169 130 175 276 307 67 98 114 127 143 161 169 172 166 180 190 147 149 152 153 145 141 127 104 155 148 122 160 146 75 164 172 170 277
207 227 212 178 183 190 189 215 170 167 145 121 56 304 302 167 168 160 158 161 170 172 167 155 163 144 141 145 144 141 145 129 148 88 127 83 129 117 50 5 148 98 65
215 223 218 195 176 168 177 212 164 156 128 129 138 213 245 215 157 149 158 168 172 177 151 159 153 147 140 142 137 140 153 138 146 151 147 133 101 103 122 236 275 21 76
212 208 223 139 145 155 189 165 161 159 136 126 124 326 203 180 156 159 161 159 154 165 165 148 148 141 135 144 146 141 144 141 126 126 125 134 147 149 149 195 258 253 300
182 179 199 144 164 178 193 159 146 147 115 120 70 52 304 178 166 163 162 158 158 159 164 156 143 142 144 138 142 144 145 143 142 146 150 144 151 137 129 142 169 213 310
194 145 116 136 179 178 186 146 153 139 126 115 115 164 269 174 167 169 163 164 165 163 159 154 146 142 144 149 147 151 146 145 152 154 152 144 158 153 166 157 138 213 247
74 67 233 202 191 213 163 160 168 173 146 145 120 225 318 160 164 161 157 164 156 156 159 157 154 159 154 152 152 150 145 154 152 147 147 145 152 171 111 94 118 139 87
355 232 219 248 232 180 137 132 148 156 143 115 145 200 121 124 161 160 165 162 154 153 157 159 157 147 145 144 150 149 150 152 156 153 160 146 149 138 125 112 187 102 155
357 273 234 108 132 137 142 135 147 155 121 150 119 101 86 94 92 171 165 160 158 158 155 152 148 148 148 148 146 150 157 161 157 160 170 163 166 128 123 109 135 136 153
274 110 70 83 100 116 126 153 138 106 114 122 109 106 112 120 100 82 87 157 163 159 149 149 143 148 148 151 153 157 164 158 165 163 165 174 165 119 148 104 135 132 118
70 62 61 67 73 86 93 89 98 100 89 95 104 100 121 110 115 113 80 88 181 150 148 145 143 145 154 157 158 157 167 168 164 164 159 178 153 118 124 136 119 124 148
50 46 49 44 50 51 57 61 67 72 79 86 96 108 87 92 113 98 92 81 91 124 134 126 146 152 151 152 147 150 154 143 135 137 137 161 148 125 136 132 146 148 148
40 47 51 42 42 42 40 42 50 63 72 77 73 76 78 71 81 91 91 86 93 114 117 122 132 166 168 149 153 146 145 142 116 118 121 117 95 103 115 119 156 156 144
32 21 31 38 36 47 48 43 28 57 68 68 70 76 84 85 95 111 114 125 106 104 117 129 131 136 128 140 140 149 146 122 141 137 105 101 99 97 107 110 101 103 139
45 42 27 40 45 40 38 46 46 47 45 57 56 58 65 69 67 85 96 86 85 79 88 91 97 96 95 128 134 124 130 141 141 134 134 121 122 126 127 110 103 98 95
36 37 32 31 36 36 43 50 56 59 67 51 44 42 54 62 66 75 78 78 85 101 103 99 95 82 60 119 121 119 121 120 117 127 137 148 158 159 146 137 145 157 158
23 24 29 28 29 24 30 49 54 59 59 63 62 51 52 53 53 49 56 60 87 92 109 119 111 114 117 127 125 116 116 117 126 139 147 152 153 166 159 148 155 162 170
13 33 33 30 27 8 19 49 51 42 39 49 60 74 89 110 125 139 147 100 106 112 97 91 107 122 125 147 160 138 133 139 143 138 143 151 159 168 170 155 159 163 192
21 26 42 38 27 8 26 41 37 35 24 46 84 83 100 130 139 138 139 127 121 115 122 125 134 139 144 171 183 139 138 153 148 152 169 170 160 167 170 168 152 174 154
20 17 30 30 26 17 29 44 30 6 358 11 33 34 69 89 137 148 162 151 150 148 162 156 157 138 154 165 182 182 121 188 170 169 173 161 176 171 172 173 180 154 135
43 26 27 54 38 21 24 28 4 2 357 357 347 290 241 213 230 168 183 178 179 168 173 170 171 170 160 157 184 190 169 177 146 147 158 153 165 172 176 180 189 171 151
26 23 36 42 52 27 39 20 358 5 344 324 327 333 319 252 247 271 211 195 221 206 183 182 179 174 181 176 173 176 187 193 175 138 125 145 164 167 171 181 200 167 174
13 10 358 357 356 16 26 29 23 23 339 330 325 336 339 336 307 248 226 241 249 207 207 193 180 172 193 213 184 181 182 183 180 156 132 153 154 169 177 171 186 194 193
10 4 4 356 353 352 347 345 5 58 18 341 330 294 302 307 281 256 262 235 216 238 152 146 176 217 184 188 188 184 190 184 178 153 169 178 185 191 186 192 190 195 208